Weather in Sokolka

Russia / Republic of Tatarstan     55°32′46″N   51°30′38″E
temp.,
°C
wind,
m/s
gust,
m/s
humid.,
%
clouds,
%
prec.,
mm/h
press.,
hPa
HPBL,
m
19 april, mon
mon1900:00+4ene7135453 0.0 1026639
03:00+1ene8135699 0.0 1027577
06:000ene8145842 0.0 1028682
09:00+4ene9124397 0.0 10291058
12:00+6e911345 0.0 10291511
15:00+8e810295 0.0 10291674
18:00+6ene711330 0.0 1029860
21:00+3ene714400 0.0 1031555
20 april, tue
tue2000:00+1e512470 0.0 1031388
03:000e410580 0.0 1032255
06:00+1ese510510 0.0 1033427
09:00+5ese68310 0.0 10331053
12:00+8ese67250 0.0 10321351
15:00+9ese67250 0.0 10311459
18:00+8ese58340 0.0 1030280
21:00+5ese41044100 0.0 1030237
21 april, wed
wed2100:00+3ese4115076 0.0 1029249
03:00+2ese4115699 0.0 1029207
06:00+3se61446100 0.0 1028595
09:00+7se91433100 0.0 1027891
12:00+9sse81331100 0.0 10251016
15:00+9s71337100 0.0 10251309
18:00+6s51359100 0.2 10261108
21:00+4sse71587100 1.5 1026832
22 april, thu
thu2200:00+3s71496100 1.4 1026764
03:00+3s61296100 2.9 1026637
06:00+3s51197100 1.5 1026682
09:00+4s51096100 2.8 1026730
12:00+4s5997100 1.3 1027665
15:00+4sse41095100 1.4 1027522
18:00+5s51088100 0.0 1028496
21:00+5s4992100 0.0 1028388
23 april, fri
fri2300:00+4s3792100 0.0 1028298
03:00+4sse3693100 0.0 1028220
06:00+4se2493100 0.0 1028215
09:00+6sse3486100 0.0 1027473
12:00+6se3387100 0.0 1027469
15:00+6ese3490100 0.0 1026489
18:00+6e3587100 0.0 1025407
21:00+5ene3590100 0.0 1023187